CW2220 Weather Reports


Display with metric or nautical units.
time (UTC)temp
F
wind
direction
speed
MPH
gust
MPH
rain 1hr
in
rain 24hr
in
rain mn
in
humidity
%
barometer
mb
20260903204547 76 0 0.0 4.0 0.97 1.00 1.00 95 1014.1
20260903203056 76 297 0.0 10.0 0.77 0.80 0.80 93 1014.6
20260903201545 79 57 9.0 17.0 0.17 0.20 0.20 88 1014.6
20260903200050 84 32 4.0 18.0 0.00 0.03 0.03 73 1014.3
20260903194542 91 262 3.0 10.0 0.00 0.03 0.03 72 1013.8
20260903193043 90 159 2.0 11.0 0.00 0.03 0.03 74 1014.0
20260903191541 90 296 3.0 10.0 0.00 0.03 0.03 75 1014.1
20260903190041 90 167 2.0 6.0 0.00 0.03 0.03 78 1014.1
20260903184544 87 168 4.0 8.0 0.02 0.12 0.03 79 1014.2
20260903183045 87 263 5.0 12.0 0.02 0.12 0.03 82 1014.4
20260903181539 86 198 4.0 8.0 0.02 0.12 0.03 87 1014.6
20260903180046 84 121 0.0 10.0 0.02 0.12 0.03 92 1014.5
20260903174541 84 180 4.0 12.0 0.00 0.10 0.01 86 1014.7
20260903173041 89 159 0.0 4.0 0.00 0.10 0.01 78 1014.8
20260903171540 89 0 0.0 4.0 0.00 0.10 0.01 79 1014.6
20260903170047 89 0 0.0 5.0 0.00 0.10 0.01 79 1014.8
20260903164547 89 37 0.0 3.0 0.00 0.10 0.01 80 1014.8
20260903163040 89 312 1.0 4.0 0.00 0.10 0.01 80 1014.9
20260903161538 89 342 0.0 3.0 0.00 0.10 0.01 79 1014.9
20260903160044 89 29 2.0 5.0 0.00 0.10 0.01 78 1015.1
20260903154600 88 0 0.0 1.0 0.00 0.10 0.01 81 1015.1
20260903153039 88 0 1.0 3.0 0.00 0.10 0.01 82 1015.1
20260903151544 87 194 3.0 5.0 0.00 0.10 0.01 81 1015.2
20260903150041 88 164 2.0 4.0 0.00 0.10 0.01 82 1015.3
20260903144539 87 141 2.0 6.0 0.00 0.10 0.01 85 1015.3
20260903143047 86 0 1.0 8.0 0.00 0.10 0.01 87 1015.3
20260903141557 85 170 3.0 10.0 0.00 0.10 0.01 89 1015.3
20260903140044 84 67 2.0 9.0 0.00 0.10 0.01 92 1015.4
20260903134539 83 63 2.0 5.0 0.00 0.10 0.01 95 1015.3
20260903133039 81 59 2.0 4.0 0.00 0.10 0.01 97 1015.3
20260903131547 80 50 2.0 6.0 0.00 0.10 0.01 98 1015.3
20260903130040 78 0 1.0 6.0 0.00 0.10 0.01 99 1015.3
20260903124543 78 63 2.0 4.0 0.00 0.10 0.01 99 1015.3
20260903123040 77 49 2.0 4.0 0.00 0.10 0.01 99 1015.1
20260903121537 77 73 0.0 3.0 0.00 0.10 0.01 99 1015.1
20260903120039 77 75 1.0 4.0 0.00 0.10 0.01 99 1014.9
20260903114545 77 80 1.0 4.0 0.00 0.10 0.01 99 1014.8
20260903113045 77 67 0.0 3.0 0.00 0.10 0.01 99 1014.6
20260903111545 77 0 0.0 0.0 0.01 0.10 0.01 99 1014.5
20260903110047 76 0 0.0 0.0 0.01 0.10 0.01 99 1014.4
20260903104543 76 0 0.0 0.0 0.01 0.10 0.01 99 1014.3
20260903103046 76 0 0.0 0.0 0.01 0.10 0.01 99 1014.3
20260903101543 76 0 0.0 0.0 0.00 0.09 0.00 99 1014.3
20260903100042 76 0 0.0 0.0 0.00 0.09 0.00 99 1014.1
20260903094546 76 0 0.0 0.0 0.00 0.09 0.00 98 1014.0
20260903093102 76 0 0.0 0.0 0.00 0.09 0.00 98 1014.0
20260903091539 76 0 0.0 0.0 0.00 0.09 0.00 98 1014.0
20260903090040 77 0 0.0 0.0 0.00 0.09 0.00 98 1014.0
20260903084546 77 0 0.0 0.0 0.00 0.09 0.00 98 1014.0
20260903083039 77 0 0.0 0.0 0.00 0.09 0.00 98 1014.2
20260903081539 77 0 0.0 0.0 0.00 0.09 0.00 98 1014.0
20260903080039 77 0 0.0 0.0 0.00 0.09 0.00 98 1014.0
20260903074539 77 0 0.0 0.0 0.00 0.09 0.00 98 1014.2
20260903073040 78 0 0.0 0.0 0.00 0.09 0.00 98 1014.0
20260903071540 77 0 0.0 0.0 0.00 0.09 0.00 98 1014.0
20260903070041 78 0 0.0 0.0 0.00 0.09 0.00 98 1014.2
20260903064541 78 0 0.0 0.0 0.00 0.09 0.00 98 1014.3
20260903063107 78 0 0.0 0.0 0.00 0.09 0.00 98 1014.4
20260903061540 78 0 0.0 3.0 0.00 0.09 0.00 97 1014.4
20260903060039 78 0 0.0 1.0 0.00 0.09 0.00 97 1014.6
20260903054539 78 0 0.0 0.0 0.00 0.09 0.00 97 1014.8
20260903053038 78 0 0.0 1.0 0.00 0.09 0.00 97 1015.0
20260903051547 78 0 0.0 1.0 0.00 0.09 0.00 97 1015.0
20260903050107 78 0 0.0 0.0 0.00 0.09 0.00 97 1014.9
20260903044538 78 0 0.0 0.0 0.00 0.09 0.09 97 1015.0
20260903043038 78 0 0.0 0.0 0.00 0.09 0.09 97 1015.0
20260903041550 78 0 0.0 0.0 0.00 0.09 0.09 97 1015.0
20260903040049 78 0 0.0 0.0 0.00 0.09 0.09 97 1015.1
20260903034540 78 0 0.0 0.0 0.00 0.09 0.09 97 1015.2
20260903033039 79 0 0.0 0.0 0.00 0.09 0.09 97 1015.3
20260903031540 79 0 0.0 0.0 0.00 0.09 0.09 96 1015.5
20260903030040 79 0 0.0 0.0 0.00 0.09 0.09 96 1015.5
20260903024541 79 0 0.0 0.0 0.00 0.09 0.09 96 1015.5
20260903023042 79 0 0.0 0.0 0.00 0.09 0.09 96 1015.3
20260903021539 79 0 0.0 0.0 0.00 0.09 0.09 95 1015.2
20260903020043 80 0 0.0 0.0 0.00 0.09 0.09 95 1015.1
20260903014549 80 0 0.0 0.0 0.00 0.09 0.09 95 1014.8
20260903013039 80 0 0.0 0.0 0.00 0.09 0.09 94 1014.6
20260903011555 80 0 0.0 1.0 0.00 0.09 0.09 94 1014.4
20260903010038 81 0 0.0 0.0 0.00 0.09 0.09 93 1014.3
20260903004542 81 0 0.0 1.0 0.00 0.09 0.09 93 1014.2
20260903003042 81 0 0.0 2.0 0.00 0.09 0.09 92 1014.3
20260903001544 81 0 0.0 1.0 0.00 0.09 0.09 92 1014.1
20260903000047 82 202 1.0 2.0 0.00 0.09 0.09 91 1014.3
20260902234546 82 0 0.0 3.0 0.00 0.09 0.09 91 1014.4
20260902233048 82 0 0.0 4.0 0.00 0.09 0.09 90 1014.5
20260902231554 82 109 1.0 4.0 0.00 0.09 0.09 90 1014.5
20260902230038 82 0 1.0 4.0 0.00 0.09 0.09 90 1014.6
20260902224547 82 188 1.0 5.0 0.00 0.09 0.09 91 1014.7
20260902223038 81 206 3.0 7.0 0.00 0.09 0.09 91 1014.6
20260902221547 81 157 1.0 5.0 0.00 0.09 0.09 91 1014.7
20260902220041 81 172 0.0 3.0 0.00 0.09 0.09 90 1014.8
20260902214546 80 97 0.0 2.0 0.00 0.09 0.09 90 1014.7
20260902213052 80 0 0.0 2.0 0.00 0.09 0.09 91 1014.9
20260902211547 80 196 1.0 4.0 0.00 0.09 0.09 92 1014.9
20260902210046 79 195 3.0 7.0 0.00 0.09 0.09 93 1015.0